,,PressureMeas_1m,,PRMeasQMR101_1,,RHStat155_1m_1,,SRMeasQMS101R_1m,,TAStat155_1m_1,,GenWind_1,,GenWind_1,
2019-10-23, 00:00:06,VALID,917.603,VALID,0.0,VALID,98.719,VALID,0.011,VALID,20.625,INVALID,360.0,VALID,0.0,
2019-10-23, 00:01:06,VALID,917.594,VALID,0.0,VALID,98.73,VALID,0.021,VALID,20.629,INVALID,360.0,VALID,0.0,
2019-10-23, 00:02:06,VALID,917.575,VALID,0.0,VALID,98.718,VALID,0.015,VALID,20.64,INVALID,360.0,VALID,0.0,
2019-10-23, 00:03:06,VALID,917.552,VALID,0.0,VALID,98.701,VALID,0.024,VALID,20.619,VALID,2.0,VALID,0.0,
2019-10-23, 00:04:06,VALID,917.522,VALID,0.0,VALID,98.653,VALID,0.014,VALID,20.577,VALID,23.0,VALID,0.0,
2019-10-23, 00:05:06,VALID,917.524,VALID,0.0,VALID,98.657,VALID,0.014,VALID,20.553,VALID,14.0,VALID,0.0,
2019-10-23, 00:06:06,VALID,917.499,VALID,0.0,VALID,98.641,VALID,0.009,VALID,20.525,VALID,14.0,VALID,0.0,
2019-10-23, 00:07:06,VALID,917.512,VALID,0.0,VALID,98.74,VALID,-0.006,VALID,20.544,VALID,14.0,VALID,0.0,
2019-10-23, 00:08:06,VALID,917.515,VALID,0.0,VALID,98.859,VALID,-0.009,VALID,20.586,VALID,14.0,VALID,0.0,
2019-10-23, 00:09:06,VALID,917.491,VALID,0.0,VALID,98.856,VALID,-0.016,VALID,20.598,VALID,14.0,VALID,0.0,
2019-10-23, 00:10:06,VALID,917.471,VALID,0.0,VALID,98.789,VALID,-0.018,VALID,20.58,VALID,17.0,VALID,0.0,
2019-10-23, 00:11:06,VALID,917.462,VALID,0.0,VALID,98.752,VALID,-0.002,VALID,20.553,VALID,331.0,VALID,0.0,
2019-10-23, 00:12:06,VALID,917.457,VALID,0.0,VALID,98.805,VALID,-0.002,VALID,20.555,VALID,296.0,VALID,0.0,
2019-10-23, 00:13:06,VALID,917.465,VALID,0.0,VALID,98.781,VALID,0.002,VALID,20.524,INVALID,360.0,VALID,0.0,
2019-10-23, 00:14:06,VALID,917.464,VALID,0.0,VALID,98.791,VALID,-0.011,VALID,20.489,INVALID,360.0,VALID,0.0,
2019-10-23, 00:15:06,VALID,917.454,VALID,0.0,VALID,98.83,VALID,-0.014,VALID,20.467,INVALID,360.0,VALID,0.0,
2019-10-23, 00:16:06,VALID,917.419,VALID,0.0,VALID,98.921,VALID,-0.015,VALID,20.469,INVALID,360.0,VALID,0.0,
2019-10-23, 00:17:06,VALID,917.432,VALID,0.0,VALID,98.958,VALID,-0.024,VALID,20.46,INVALID,360.0,VALID,0.0,
2019-10-23, 00:18:06,VALID,917.421,VALID,0.0,VALID,98.986,VALID,-0.008,VALID,20.458,INVALID,360.0,VALID,0.0,
2019-10-23, 00:19:06,VALID,917.425,VALID,0.0,VALID,99.014,VALID,-0.009,VALID,20.456,INVALID,360.0,VALID,0.0,
2019-10-23, 00:20:06,VALID,917.411,VALID,0.0,VALID,99.044,VALID,0.007,VALID,20.456,INVALID,360.0,VALID,0.0,
2019-10-23, 00:21:06,VALID,917.397,VALID,0.0,VALID,99.086,VALID,-0.0,VALID,20.468,INVALID,360.0,VALID,0.0,
2019-10-23, 00:22:06,VALID,917.386,VALID,0.0,VALID,99.125,VALID,-0.001,VALID,20.493,INVALID,360.0,VALID,0.0,
2019-10-23, 00:23:06,VALID,917.379,VALID,0.0,VALID,99.151,VALID,-0.016,VALID,20.532,INVALID,360.0,VALID,0.0,
2019-10-23, 00:24:06,VALID,917.38,VALID,0.0,VALID,99.046,VALID,-0.024,VALID,20.522,INVALID,360.0,VALID,0.0,
2019-10-23, 00:25:06,VALID,917.368,VALID,0.0,VALID,98.939,VALID,-0.018,VALID,20.493,VALID,265.0,VALID,0.0,
2019-10-23, 00:26:06,VALID,917.357,VALID,0.0,VALID,98.94,VALID,-0.005,VALID,20.518,VALID,278.0,VALID,0.0,
2019-10-23, 00:27:06,VALID,917.346,VALID,0.0,VALID,98.951,VALID,-0.014,VALID,20.556,VALID,4.0,VALID,0.0,
2019-10-23, 00:28:06,VALID,917.332,VALID,0.0,VALID,98.918,VALID,-0.004,VALID,20.548,VALID,38.0,VALID,0.0,
2019-10-23, 00:29:07,VALID,917.323,VALID,0.0,VALID,98.853,VALID,-0.01,VALID,20.518,VALID,38.0,VALID,0.0,
2019-10-23, 00:30:07,VALID,917.296,VALID,0.0,VALID,98.869,VALID,-0.02,VALID,20.54,VALID,38.0,VALID,0.0,
2019-10-23, 00:31:07,VALID,917.293,VALID,0.0,VALID,98.945,VALID,-0.01,VALID,20.597,VALID,38.0,VALID,0.0,
2019-10-23, 00:32:07,VALID,917.279,VALID,0.0,VALID,98.964,VALID,0.004,VALID,20.613,VALID,38.0,VALID,0.0,
2019-10-23, 00:33:07,VALID,917.272,VALID,0.0,VALID,98.898,VALID,-0.011,VALID,20.605,VALID,38.0,VALID,0.0,
2019-10-23, 00:34:07,VALID,917.248,VALID,0.0,VALID,98.784,VALID,-0.005,VALID,20.594,VALID,38.0,VALID,0.0,
2019-10-23, 00:35:07,VALID,917.255,VALID,0.0,VALID,98.644,VALID,-0.008,VALID,20.57,VALID,40.0,VALID,0.0,
2019-10-23, 00:36:07,VALID,917.245,VALID,0.0,VALID,98.489,VALID,-0.009,VALID,20.552,VALID,44.0,VALID,0.0,
2019-10-23, 00:37:07,VALID,917.232,VALID,0.0,VALID,98.468,VALID,-0.026,VALID,20.567,VALID,45.0,VALID,0.0,
2019-10-23, 00:38:07,VALID,917.222,VALID,0.0,VALID,98.485,VALID,0.003,VALID,20.603,VALID,45.0,VALID,0.0,
2019-10-23, 00:39:07,VALID,917.199,VALID,0.0,VALID,98.411,VALID,-0.013,VALID,20.611,VALID,45.0,VALID,0.0,
2019-10-23, 00:40:07,VALID,917.182,VALID,0.0,VALID,98.236,VALID,-0.017,VALID,20.598,VALID,45.0,VALID,0.0,
2019-10-23, 00:41:07,VALID,917.167,VALID,0.0,VALID,98.12,VALID,-0.023,VALID,20.599,VALID,45.0,VALID,0.0,
2019-10-23, 00:42:07,VALID,917.158,VALID,0.0,VALID,98.058,VALID,-0.011,VALID,20.608,VALID,45.0,VALID,0.0,
2019-10-23, 00:43:07,VALID,917.13,VALID,0.0,VALID,98.097,VALID,-0.022,VALID,20.623,VALID,45.0,VALID,0.0,
2019-10-23, 00:44:07,VALID,917.116,VALID,0.0,VALID,98.153,VALID,-0.028,VALID,20.623,VALID,45.0,VALID,0.0,
2019-10-23, 00:45:07,VALID,917.096,VALID,0.0,VALID,98.276,VALID,-0.012,VALID,20.634,VALID,45.0,VALID,0.0,
2019-10-23, 00:46:07,VALID,917.071,VALID,0.0,VALID,98.297,VALID,0.0,VALID,20.625,VALID,43.0,VALID,0.0,
2019-10-23, 00:47:07,VALID,917.062,VALID,0.0,VALID,98.308,VALID,-0.014,VALID,20.615,VALID,33.0,VALID,0.0,
2019-10-23, 00:48:07,VALID,917.038,VALID,0.0,VALID,98.214,VALID,-0.005,VALID,20.577,VALID,360.0,VALID,0.0,
2019-10-23, 00:49:07,VALID,917.026,VALID,0.0,VALID,98.193,VALID,0.005,VALID,20.571,VALID,357.0,VALID,0.0,
2019-10-23, 00:50:07,VALID,916.999,VALID,0.0,VALID,98.156,VALID,0.005,VALID,20.566,VALID,357.0,VALID,0.0,
2019-10-23, 00:51:07,VALID,916.982,VALID,0.0,VALID,98.101,VALID,-0.007,VALID,20.548,VALID,354.0,VALID,0.0,
2019-10-23, 00:52:07,VALID,916.987,VALID,0.0,VALID,98.115,VALID,-0.002,VALID,20.537,VALID,353.0,VALID,0.0,
2019-10-23, 00:53:07,VALID,916.968,VALID,0.0,VALID,98.197,VALID,-0.001,VALID,20.533,INVALID,360.0,VALID,0.0,
2019-10-23, 00:54:07,VALID,916.932,VALID,0.0,VALID,98.314,VALID,0.002,VALID,20.534,INVALID,360.0,VALID,0.0,
2019-10-23, 00:55:07,VALID,916.936,VALID,0.0,VALID,98.327,VALID,0.014,VALID,20.507,INVALID,360.0,VALID,0.0,
2019-10-23, 00:56:07,VALID,916.93,VALID,0.0,VALID,98.417,VALID,0.018,VALID,20.49,INVALID,360.0,VALID,0.0,
2019-10-23, 00:57:07,VALID,916.897,VALID,0.0,VALID,98.525,VALID,-0.002,VALID,20.471,INVALID,360.0,VALID,0.0,
2019-10-23, 00:58:07,VALID,916.875,VALID,0.0,VALID,98.647,VALID,0.011,VALID,20.459,INVALID,360.0,VALID,0.0,
2019-10-23, 00:59:07,VALID,916.86,VALID,0.0,VALID,98.733,VALID,0.01,VALID,20.465,INVALID,360.0,VALID,0.0,
2019-10-23, 01:00:07,VALID,916.854,VALID,0.0,VALID,98.779,VALID,0.001,VALID,20.458,INVALID,360.0,VALID,0.0,
2019-10-23, 01:01:07,VALID,916.844,VALID,0.0,VALID,98.873,VALID,0.005,VALID,20.471,INVALID,360.0,VALID,0.0,
2019-10-23, 01:02:07,VALID,916.838,VALID,0.0,VALID,98.891,VALID,0.0,VALID,20.48,INVALID,360.0,VALID,0.0,
2019-10-23, 01:03:07,VALID,916.806,VALID,0.0,VALID,98.879,VALID,0.007,VALID,20.472,INVALID,360.0,VALID,0.0,
2019-10-23, 01:04:07,VALID,916.814,VALID,0.0,VALID,98.858,VALID,0.008,VALID,20.464,INVALID,360.0,VALID,0.0,
2019-10-23, 01:05:07,VALID,916.785,VALID,0.0,VALID,98.841,VALID,0.012,VALID,20.462,INVALID,360.0,VALID,0.0,
2019-10-23, 01:06:07,VALID,916.773,VALID,0.0,VALID,98.896,VALID,-0.002,VALID,20.474,INVALID,360.0,VALID,0.0,
2019-10-23, 01:07:07,VALID,916.771,VALID,0.0,VALID,98.936,VALID,0.017,VALID,20.487,INVALID,360.0,VALID,0.0,
2019-10-23, 01:08:07,VALID,916.753,VALID,0.0,VALID,98.905,VALID,0.005,VALID,20.493,INVALID,360.0,VALID,0.0,
2019-10-23, 01:09:07,VALID,916.742,VALID,0.0,VALID,98.917,VALID,-0.002,VALID,20.488,INVALID,360.0,VALID,0.0,
2019-10-23, 01:10:07,VALID,916.732,VALID,0.0,VALID,98.895,VALID,0.002,VALID,20.467,INVALID,360.0,VALID,0.0,
2019-10-23, 01:11:07,VALID,916.739,VALID,0.0,VALID,98.896,VALID,0.007,VALID,20.434,INVALID,360.0,VALID,0.0,
2019-10-23, 01:12:07,VALID,916.74,VALID,0.0,VALID,98.879,VALID,0.012,VALID,20.397,INVALID,360.0,VALID,0.0,
2019-10-23, 01:13:07,VALID,916.724,VALID,0.0,VALID,98.923,VALID,0.007,VALID,20.373,INVALID,360.0,VALID,0.0,
2019-10-23, 01:14:07,VALID,916.711,VALID,0.0,VALID,98.972,VALID,0.004,VALID,20.358,INVALID,360.0,VALID,0.0,
2019-10-23, 01:15:07,VALID,916.712,VALID,0.0,VALID,99.042,VALID,0.02,VALID,20.344,INVALID,360.0,VALID,0.0,
2019-10-23, 01:16:07,VALID,916.695,VALID,0.0,VALID,99.135,VALID,0.003,VALID,20.358,INVALID,360.0,VALID,0.0,
2019-10-23, 01:17:07,VALID,916.662,VALID,0.0,VALID,99.195,VALID,0.03,VALID,20.36,INVALID,360.0,VALID,0.0,
2019-10-23, 01:18:07,VALID,916.681,VALID,0.0,VALID,99.252,VALID,0.01,VALID,20.378,INVALID,360.0,VALID,0.0,
2019-10-23, 01:19:07,VALID,916.67,VALID,0.0,VALID,99.327,VALID,0.011,VALID,20.414,INVALID,360.0,VALID,0.0,
2019-10-23, 01:20:07,VALID,916.671,VALID,0.0,VALID,99.346,VALID,0.019,VALID,20.442,INVALID,360.0,VALID,0.0,
2019-10-23, 01:21:07,VALID,916.658,VALID,0.0,VALID,99.319,VALID,0.013,VALID,20.431,INVALID,360.0,VALID,0.0,
2019-10-23, 01:22:07,VALID,916.651,VALID,0.0,VALID,99.276,VALID,-0.007,VALID,20.418,INVALID,360.0,VALID,0.0,
2019-10-23, 01:23:07,VALID,916.655,VALID,0.0,VALID,99.295,VALID,-0.007,VALID,20.43,INVALID,360.0,VALID,0.0,
2019-10-23, 01:24:07,VALID,916.652,VALID,0.0,VALID,99.346,VALID,-0.017,VALID,20.477,INVALID,360.0,VALID,0.0,
2019-10-23, 01:25:07,VALID,916.628,VALID,0.0,VALID,99.36,VALID,0.002,VALID,20.507,INVALID,360.0,VALID,0.0,
2019-10-23, 01:26:07,VALID,916.618,VALID,0.0,VALID,99.268,VALID,-0.002,VALID,20.503,INVALID,360.0,VALID,0.0,
2019-10-23, 01:27:07,VALID,916.609,VALID,0.0,VALID,99.187,VALID,-0.004,VALID,20.506,INVALID,360.0,VALID,0.0,
2019-10-23, 01:28:07,VALID,916.629,VALID,0.0,VALID,99.093,VALID,-0.008,VALID,20.51,INVALID,360.0,VALID,0.0,
2019-10-23, 01:29:07,VALID,916.623,VALID,0.0,VALID,98.942,VALID,-0.015,VALID,20.472,INVALID,360.0,VALID,0.0,
2019-10-23, 01:30:07,VALID,916.62,VALID,0.0,VALID,98.902,VALID,-0.007,VALID,20.461,INVALID,360.0,VALID,0.0,
2019-10-23, 01:31:07,VALID,916.642,VALID,0.0,VALID,98.911,VALID,-0.0,VALID,20.472,INVALID,360.0,VALID,0.0,
2019-10-23, 01:32:07,VALID,916.631,VALID,0.0,VALID,98.916,VALID,-0.008,VALID,20.491,INVALID,360.0,VALID,0.0,
2019-10-23, 01:33:07,VALID,916.642,VALID,0.0,VALID,98.86,VALID,0.005,VALID,20.492,INVALID,360.0,VALID,0.0,
2019-10-23, 01:34:07,VALID,916.635,VALID,0.0,VALID,98.843,VALID,-0.0,VALID,20.486,VALID,159.0,VALID,0.0,
2019-10-23, 01:35:07,VALID,916.633,VALID,0.0,VALID,98.797,VALID,-0.005,VALID,20.479,VALID,159.0,VALID,0.0,
2019-10-23, 01:36:07,VALID,916.632,VALID,0.0,VALID,98.862,VALID,-0.009,VALID,20.503,VALID,159.0,VALID,0.0,
2019-10-23, 01:37:07,VALID,916.62,VALID,0.0,VALID,98.915,VALID,0.009,VALID,20.532,VALID,159.0,VALID,0.0,
2019-10-23, 01:38:07,VALID,916.623,VALID,0.0,VALID,98.935,VALID,-0.008,VALID,20.555,VALID,159.0,VALID,0.0,
2019-10-23, 01:39:07,VALID,916.626,VALID,0.0,VALID,98.871,VALID,0.005,VALID,20.536,VALID,159.0,VALID,0.0,
2019-10-23, 01:40:07,VALID,916.613,VALID,0.0,VALID,98.831,VALID,-0.014,VALID,20.526,VALID,159.0,VALID,0.0,
2019-10-23, 01:41:07,VALID,916.609,VALID,0.0,VALID,98.861,VALID,0.006,VALID,20.553,VALID,159.0,VALID,0.0,
2019-10-23, 01:42:07,VALID,916.589,VALID,0.0,VALID,98.849,VALID,0.012,VALID,20.578,VALID,159.0,VALID,0.0,
2019-10-23, 01:43:07,VALID,916.59,VALID,0.0,VALID,98.83,VALID,0.021,VALID,20.597,VALID,159.0,VALID,0.0,
2019-10-23, 01:44:07,VALID,916.584,VALID,0.0,VALID,98.751,VALID,-0.004,VALID,20.59,VALID,159.0,VALID,0.0,
2019-10-23, 01:45:07,VALID,916.583,VALID,0.0,VALID,98.737,VALID,0.007,VALID,20.581,INVALID,360.0,VALID,0.0,
2019-10-23, 01:46:07,VALID,916.564,VALID,0.0,VALID,98.632,VALID,-0.006,VALID,20.553,INVALID,360.0,VALID,0.0,
2019-10-23, 01:47:07,VALID,916.545,VALID,0.0,VALID,98.632,VALID,-0.014,VALID,20.541,INVALID,360.0,VALID,0.0,
2019-10-23, 01:48:07,VALID,916.545,VALID,0.0,VALID,98.713,VALID,-0.003,VALID,20.562,INVALID,360.0,VALID,0.0,
2019-10-23, 01:49:07,VALID,916.529,VALID,0.0,VALID,98.704,VALID,0.004,VALID,20.571,INVALID,360.0,VALID,0.0,
2019-10-23, 01:50:07,VALID,916.552,VALID,0.0,VALID,98.683,VALID,-0.001,VALID,20.566,INVALID,360.0,VALID,0.0,
2019-10-23, 01:51:07,VALID,916.544,VALID,0.0,VALID,98.667,VALID,0.006,VALID,20.562,INVALID,360.0,VALID,0.0,
2019-10-23, 01:52:07,VALID,916.543,VALID,0.0,VALID,98.677,VALID,0.02,VALID,20.577,INVALID,360.0,VALID,0.0,
2019-10-23, 01:53:07,VALID,916.542,VALID,0.0,VALID,98.7,VALID,0.008,VALID,20.594,INVALID,360.0,VALID,0.0,
2019-10-23, 01:54:07,VALID,916.52,VALID,0.0,VALID,98.684,VALID,-0.007,VALID,20.611,INVALID,360.0,VALID,0.0,
2019-10-23, 01:55:07,VALID,916.522,VALID,0.0,VALID,98.618,VALID,0.001,VALID,20.6,INVALID,360.0,VALID,0.0,
2019-10-23, 01:56:07,VALID,916.504,VALID,0.0,VALID,98.511,VALID,0.009,VALID,20.583,INVALID,360.0,VALID,0.0,
2019-10-23, 01:57:07,VALID,916.478,VALID,0.0,VALID,98.416,VALID,0.009,VALID,20.573,INVALID,360.0,VALID,0.0,
2019-10-23, 01:58:07,VALID,916.46,VALID,0.0,VALID,98.342,VALID,-0.002,VALID,20.591,INVALID,360.0,VALID,0.0,
2019-10-23, 01:59:07,VALID,916.43,VALID,0.0,VALID,98.281,VALID,-0.011,VALID,20.591,VALID,41.0,VALID,0.0,
2019-10-23, 02:00:07,VALID,916.426,VALID,0.0,VALID,98.199,VALID,-0.006,VALID,20.571,VALID,41.0,VALID,0.0,
2019-10-23, 02:01:07,VALID,916.417,VALID,0.0,VALID,98.306,VALID,-0.001,VALID,20.579,VALID,31.0,VALID,0.0,
2019-10-23, 02:02:07,VALID,916.354,VALID,0.0,VALID,98.374,VALID,-0.002,VALID,20.567,VALID,18.0,VALID,0.0,
2019-10-23, 02:03:07,VALID,916.353,VALID,0.0,VALID,98.436,VALID,-0.004,VALID,20.549,VALID,20.0,VALID,0.0,
2019-10-23, 02:04:07,VALID,916.33,VALID,0.0,VALID,98.607,VALID,0.015,VALID,20.576,VALID,29.0,VALID,0.0,
2019-10-23, 02:05:07,VALID,916.322,VALID,0.0,VALID,98.652,VALID,-0.01,VALID,20.579,VALID,31.0,VALID,0.0,
2019-10-23, 02:06:07,VALID,916.325,VALID,0.0,VALID,98.67,VALID,0.015,VALID,20.565,VALID,33.0,VALID,0.0,
2019-10-23, 02:07:07,VALID,916.319,VALID,0.0,VALID,98.664,VALID,0.031,VALID,20.544,VALID,29.0,VALID,0.0,
2019-10-23, 02:08:07,VALID,916.306,VALID,0.0,VALID,98.653,VALID,0.007,VALID,20.509,VALID,15.0,VALID,0.0,
2019-10-23, 02:09:07,VALID,916.299,VALID,0.0,VALID,98.615,VALID,0.029,VALID,20.474,VALID,15.0,VALID,0.0,
2019-10-23, 02:10:07,VALID,916.276,VALID,0.0,VALID,98.675,VALID,0.028,VALID,20.482,VALID,15.0,VALID,0.0,
2019-10-23, 02:11:07,VALID,916.289,VALID,0.0,VALID,98.706,VALID,0.018,VALID,20.49,VALID,15.0,VALID,0.0,
2019-10-23, 02:12:07,VALID,916.266,VALID,0.0,VALID,98.717,VALID,0.015,VALID,20.503,VALID,15.0,VALID,0.0,
2019-10-23, 02:13:07,VALID,916.274,VALID,0.0,VALID,98.803,VALID,0.036,VALID,20.542,VALID,15.0,VALID,0.0,
2019-10-23, 02:14:07,VALID,916.249,VALID,0.0,VALID,98.822,VALID,0.038,VALID,20.56,VALID,15.0,VALID,0.0,
2019-10-23, 02:15:07,VALID,916.241,VALID,0.0,VALID,98.778,VALID,0.032,VALID,20.575,VALID,13.0,VALID,0.0,
2019-10-23, 02:16:07,VALID,916.225,VALID,0.0,VALID,98.665,VALID,0.039,VALID,20.519,VALID,1.0,VALID,0.0,
2019-10-23, 02:17:07,VALID,916.211,VALID,0.0,VALID,98.628,VALID,0.035,VALID,20.506,VALID,344.0,VALID,0.0,
2019-10-23, 02:18:07,VALID,916.182,VALID,0.0,VALID,98.686,VALID,0.044,VALID,20.523,VALID,344.0,VALID,0.0,
2019-10-23, 02:19:07,VALID,916.16,VALID,0.0,VALID,98.72,VALID,0.04,VALID,20.543,VALID,346.0,VALID,0.0,
2019-10-23, 02:20:07,VALID,916.132,VALID,0.0,VALID,98.693,VALID,0.042,VALID,20.53,VALID,353.0,VALID,0.0,
2019-10-23, 02:21:07,VALID,916.109,VALID,0.0,VALID,98.702,VALID,0.016,VALID,20.508,VALID,357.0,VALID,0.0,
2019-10-23, 02:22:07,VALID,916.11,VALID,0.0,VALID,98.772,VALID,0.005,VALID,20.488,VALID,16.0,VALID,0.0,
2019-10-23, 02:23:07,VALID,916.107,VALID,0.0,VALID,98.874,VALID,-0.006,VALID,20.478,VALID,26.0,VALID,0.0,
2019-10-23, 02:24:07,VALID,916.091,VALID,0.0,VALID,99.025,VALID,-0.021,VALID,20.502,VALID,24.0,VALID,0.0,
2019-10-23, 02:25:07,VALID,916.075,VALID,0.0,VALID,99.118,VALID,-0.015,VALID,20.524,VALID,357.0,VALID,0.0,
2019-10-23, 02:26:07,VALID,916.066,VALID,0.0,VALID,99.131,VALID,-0.005,VALID,20.495,VALID,352.0,VALID,0.0,
2019-10-23, 02:27:07,VALID,916.074,VALID,0.0,VALID,99.098,VALID,-0.024,VALID,20.465,VALID,351.0,VALID,0.0,
2019-10-23, 02:28:07,VALID,916.067,VALID,0.0,VALID,99.11,VALID,0.011,VALID,20.446,VALID,6.0,VALID,0.0,
2019-10-23, 02:29:07,VALID,916.057,VALID,0.0,VALID,99.195,VALID,-0.015,VALID,20.466,VALID,357.0,VALID,0.0,
2019-10-23, 02:30:07,VALID,916.032,VALID,0.0,VALID,99.174,VALID,-0.011,VALID,20.447,VALID,345.0,VALID,0.0,
2019-10-23, 02:31:07,VALID,916.036,VALID,0.0,VALID,99.259,VALID,0.006,VALID,20.461,VALID,345.0,VALID,0.0,
2019-10-23, 02:32:07,VALID,916.006,VALID,0.0,VALID,99.227,VALID,-0.006,VALID,20.442,VALID,316.0,VALID,0.0,
2019-10-23, 02:33:07,VALID,915.988,VALID,0.0,VALID,99.189,VALID,-0.017,VALID,20.395,VALID,277.0,VALID,0.0,
2019-10-23, 02:34:07,VALID,915.978,VALID,0.0,VALID,99.197,VALID,-0.017,VALID,20.375,VALID,277.0,VALID,0.0,
2019-10-23, 02:35:07,VALID,915.969,VALID,0.0,VALID,99.251,VALID,-0.006,VALID,20.392,VALID,277.0,VALID,0.0,
2019-10-23, 02:36:07,VALID,915.95,VALID,0.0,VALID,99.254,VALID,-0.005,VALID,20.408,VALID,277.0,VALID,0.0,
2019-10-23, 02:37:06,VALID,915.938,VALID,0.0,VALID,99.269,VALID,-0.003,VALID,20.424,VALID,324.0,VALID,0.0,
2019-10-23, 02:38:06,VALID,915.91,VALID,0.0,VALID,99.233,VALID,-0.012,VALID,20.405,VALID,6.0,VALID,0.0,
2019-10-23, 02:39:06,VALID,915.901,VALID,0.0,VALID,99.231,VALID,-0.013,VALID,20.395,VALID,17.0,VALID,0.0,
2019-10-23, 02:40:06,VALID,915.915,VALID,0.0,VALID,99.305,VALID,-0.011,VALID,20.423,VALID,17.0,VALID,0.0,
2019-10-23, 02:41:06,VALID,915.886,VALID,0.0,VALID,99.335,VALID,-0.027,VALID,20.442,VALID,15.0,VALID,0.0,
2019-10-23, 02:42:06,VALID,915.877,VALID,0.0,VALID,99.374,VALID,-0.001,VALID,20.46,VALID,15.0,VALID,0.0,
2019-10-23, 02:43:06,VALID,915.862,VALID,0.0,VALID,99.411,VALID,-0.017,VALID,20.493,VALID,15.0,VALID,0.0,
2019-10-23, 02:44:06,VALID,915.854,VALID,0.0,VALID,99.422,VALID,-0.001,VALID,20.491,VALID,15.0,VALID,0.0,
2019-10-23, 02:45:06,VALID,915.837,VALID,0.0,VALID,99.422,VALID,-0.005,VALID,20.498,VALID,23.0,VALID,0.0,
2019-10-23, 02:46:06,VALID,915.843,VALID,0.0,VALID,99.431,VALID,-0.001,VALID,20.5,VALID,39.0,VALID,0.0,
2019-10-23, 02:47:06,VALID,915.835,VALID,0.0,VALID,99.375,VALID,-0.011,VALID,20.474,VALID,39.0,VALID,0.0,
2019-10-23, 02:48:06,VALID,915.821,VALID,0.0,VALID,99.37,VALID,0.002,VALID,20.469,VALID,40.0,VALID,0.0,
2019-10-23, 02:49:06,VALID,915.819,VALID,0.0,VALID,99.358,VALID,-0.002,VALID,20.473,VALID,40.0,VALID,0.0,
2019-10-23, 02:50:06,VALID,915.799,VALID,0.0,VALID,99.355,VALID,-0.005,VALID,20.479,VALID,40.0,VALID,0.0,
2019-10-23, 02:51:06,VALID,915.802,VALID,0.0,VALID,99.328,VALID,-0.013,VALID,20.465,VALID,19.0,VALID,0.0,
2019-10-23, 02:52:06,VALID,915.785,VALID,0.0,VALID,99.271,VALID,-0.007,VALID,20.459,VALID,3.0,VALID,0.0,
2019-10-23, 02:53:06,VALID,915.76,VALID,0.0,VALID,99.212,VALID,-0.015,VALID,20.436,VALID,3.0,VALID,0.0,
2019-10-23, 02:54:06,VALID,915.767,VALID,0.0,VALID,99.21,VALID,-0.013,VALID,20.43,VALID,3.0,VALID,0.0,
2019-10-23, 02:55:06,VALID,915.766,VALID,0.0,VALID,99.159,VALID,-0.017,VALID,20.423,VALID,3.0,VALID,0.0,
2019-10-23, 02:56:06,VALID,915.744,VALID,0.0,VALID,99.129,VALID,-0.008,VALID,20.424,VALID,3.0,VALID,0.0,
2019-10-23, 02:57:06,VALID,915.746,VALID,0.0,VALID,99.124,VALID,-0.007,VALID,20.437,VALID,3.0,VALID,0.0,
2019-10-23, 02:58:06,VALID,915.754,VALID,0.0,VALID,99.145,VALID,0.01,VALID,20.45,VALID,3.0,VALID,0.0,
2019-10-23, 02:59:06,VALID,915.736,VALID,0.0,VALID,99.129,VALID,-0.008,VALID,20.468,VALID,3.0,VALID,0.0,
2019-10-23, 03:00:06,VALID,915.733,VALID,0.0,VALID,99.054,VALID,-0.004,VALID,20.442,VALID,3.0,VALID,0.0,
2019-10-23, 03:01:06,VALID,915.7,VALID,0.0,VALID,99.033,VALID,-0.002,VALID,20.431,VALID,3.0,VALID,0.0,
2019-10-23, 03:02:06,VALID,915.672,VALID,0.0,VALID,99.008,VALID,-0.015,VALID,20.422,VALID,3.0,VALID,0.0,
2019-10-23, 03:03:06,VALID,915.666,VALID,0.0,VALID,98.934,VALID,0.002,VALID,20.382,VALID,3.0,VALID,0.0,
2019-10-23, 03:04:06,VALID,915.645,VALID,0.0,VALID,98.959,VALID,0.002,VALID,20.37,VALID,3.0,VALID,0.0,
2019-10-23, 03:05:06,VALID,915.636,VALID,0.0,VALID,99.067,VALID,0.002,VALID,20.418,VALID,3.0,VALID,0.0,
2019-10-23, 03:06:06,VALID,915.619,VALID,0.0,VALID,99.07,VALID,0.009,VALID,20.411,VALID,3.0,VALID,0.0,
2019-10-23, 03:07:06,VALID,915.611,VALID,0.0,VALID,99.087,VALID,0.013,VALID,20.4,VALID,7.0,VALID,0.0,
2019-10-23, 03:08:06,VALID,915.591,VALID,0.0,VALID,99.12,VALID,0.006,VALID,20.381,VALID,7.0,VALID,0.0,
2019-10-23, 03:09:06,VALID,915.577,VALID,0.0,VALID,99.173,VALID,-0.007,VALID,20.367,VALID,17.0,VALID,0.0,
2019-10-23, 03:10:06,VALID,915.571,VALID,0.0,VALID,99.205,VALID,0.0,VALID,20.351,VALID,8.0,VALID,0.0,
2019-10-23, 03:11:06,VALID,915.557,VALID,0.0,VALID,99.268,VALID,0.012,VALID,20.356,VALID,23.0,VALID,0.0,
2019-10-23, 03:12:06,VALID,915.559,VALID,0.0,VALID,99.341,VALID,0.013,VALID,20.379,VALID,30.0,VALID,0.0,
2019-10-23, 03:13:06,VALID,915.554,VALID,0.0,VALID,99.361,VALID,-0.006,VALID,20.39,VALID,30.0,VALID,0.0,
2019-10-23, 03:14:06,VALID,915.547,VALID,0.0,VALID,99.429,VALID,0.008,VALID,20.421,VALID,30.0,VALID,0.0,
2019-10-23, 03:15:06,VALID,915.523,VALID,0.0,VALID,99.443,VALID,0.001,VALID,20.436,VALID,30.0,VALID,0.0,
2019-10-23, 03:16:06,VALID,915.519,VALID,0.0,VALID,99.395,VALID,-0.015,VALID,20.418,VALID,30.0,VALID,0.0,
2019-10-23, 03:17:06,VALID,915.509,VALID,0.0,VALID,99.373,VALID,-0.024,VALID,20.409,VALID,30.0,VALID,0.0,
2019-10-23, 03:18:06,VALID,915.495,VALID,0.0,VALID,99.358,VALID,0.0,VALID,20.408,VALID,30.0,VALID,0.0,
2019-10-23, 03:19:06,VALID,915.478,VALID,0.0,VALID,99.332,VALID,-0.004,VALID,20.402,VALID,31.0,VALID,0.0,
2019-10-23, 03:20:06,VALID,915.505,VALID,0.0,VALID,99.383,VALID,-0.007,VALID,20.431,VALID,38.0,VALID,0.0,
2019-10-23, 03:21:06,VALID,915.507,VALID,0.0,VALID,99.402,VALID,0.011,VALID,20.424,VALID,38.0,VALID,0.0,
2019-10-23, 03:22:06,VALID,915.505,VALID,0.0,VALID,99.421,VALID,0.03,VALID,20.45,VALID,38.0,VALID,0.0,
2019-10-23, 03:23:06,VALID,915.497,VALID,0.0,VALID,99.39,VALID,0.032,VALID,20.451,VALID,36.0,VALID,0.0,
2019-10-23, 03:24:06,VALID,915.473,VALID,0.0,VALID,99.325,VALID,0.03,VALID,20.421,VALID,28.0,VALID,0.0,
2019-10-23, 03:25:06,VALID,915.451,VALID,0.0,VALID,99.283,VALID,0.034,VALID,20.39,VALID,13.0,VALID,0.0,
2019-10-23, 03:26:06,VALID,915.469,VALID,0.0,VALID,99.308,VALID,0.022,VALID,20.4,VALID,23.0,VALID,0.0,
2019-10-23, 03:27:06,VALID,915.483,VALID,0.0,VALID,99.331,VALID,0.016,VALID,20.42,VALID,13.0,VALID,0.0,
2019-10-23, 03:28:06,VALID,915.482,VALID,0.0,VALID,99.308,VALID,0.025,VALID,20.419,VALID,15.0,VALID,0.0,
2019-10-23, 03:29:06,VALID,915.493,VALID,0.0,VALID,99.321,VALID,0.025,VALID,20.433,VALID,15.0,VALID,0.0,
2019-10-23, 03:30:06,VALID,915.509,VALID,0.0,VALID,99.337,VALID,0.022,VALID,20.429,VALID,20.0,VALID,0.0,
2019-10-23, 03:31:06,VALID,915.511,VALID,0.0,VALID,99.28,VALID,0.029,VALID,20.417,VALID,24.0,VALID,0.0,
2019-10-23, 03:32:06,VALID,915.522,VALID,0.0,VALID,99.261,VALID,0.01,VALID,20.4,VALID,9.0,VALID,0.0,
2019-10-23, 03:33:06,VALID,915.526,VALID,0.0,VALID,99.184,VALID,0.024,VALID,20.361,VALID,5.0,VALID,0.0,
2019-10-23, 03:34:06,VALID,915.509,VALID,0.0,VALID,99.131,VALID,0.02,VALID,20.311,VALID,9.0,VALID,0.0,
2019-10-23, 03:35:06,VALID,915.507,VALID,0.0,VALID,99.151,VALID,0.012,VALID,20.293,VALID,9.0,VALID,0.0,
2019-10-23, 03:36:06,VALID,915.518,VALID,0.0,VALID,99.216,VALID,0.015,VALID,20.291,VALID,23.0,VALID,0.0,
2019-10-23, 03:37:06,VALID,915.529,VALID,0.0,VALID,99.281,VALID,0.019,VALID,20.302,VALID,18.0,VALID,0.0,
2019-10-23, 03:38:06,VALID,915.554,VALID,0.0,VALID,99.286,VALID,0.009,VALID,20.293,VALID,20.0,VALID,0.0,
2019-10-23, 03:39:06,VALID,915.551,VALID,0.0,VALID,99.352,VALID,0.011,VALID,20.307,VALID,30.0,VALID,0.0,
2019-10-23, 03:40:06,VALID,915.543,VALID,0.0,VALID,99.371,VALID,0.007,VALID,20.287,VALID,23.0,VALID,0.0,
2019-10-23, 03:41:06,VALID,915.553,VALID,0.0,VALID,99.379,VALID,-0.007,VALID,20.291,VALID,336.0,VALID,0.0,
2019-10-23, 03:42:06,VALID,915.563,VALID,0.0,VALID,99.45,VALID,-0.004,VALID,20.332,VALID,10.0,VALID,0.0,